Regional Weather Roundup
Issued by NWS Pendleton, OR

Home | Current Version | Previous Version | Text Only | Print | Product List | Glossary On
Versions: 1 2 3 4 5 6 7 8 9 10 11 12 13 14 15 16 17 18 19 20 21 22 23 24 25 26 27 28 29 30 31 32 33 34 35 36 37 38 39 40 41 42 43 44 45 46 47 48 49 50
000
ASUS46 KPDT 232225
RWRPDT
PENDLETON REGIONAL WEATHER ROUNDUP
NATIONAL WEATHER SERVICE PENDLETON OREGON
300 PM PDT WED JUL 23 2014

NOTE: FAIR INDICATES FEW OR NO CLOUDS BELOW 12,000 FEET WITH NO
SIGNIFICANT WEATHER AND/OR OBSTRUCTIONS TO VISIBILITY.

# INDICATES UNOFFICIAL STATION AND DATA

WAZ520-232310-
EAST SLOPES OF WASHINGTON CASCADES

CITY            SKY/WX      TMP DP  RH  WIND    PRES   REMARKS
#BUMPING DAM    N/A         52  N/A N/A SW12G25 N/A
#CLE ELUM HS    N/A         60  53  78  NW7     29.93R
#CLE ELUM LAKE  N/A         54  50  86  N1      29.92R
#CLIFFDEL 2NW   N/A         56  52  86  W3      N/A
#GLENWOOD       N/A         57  54  90  S7      29.99S
#MANASTASH CYN  N/A         57  51  80  CALM    29.96S
#NELSON         N/A         58  53  83  CALM    29.95R
#NELSON 3SW     N/A         55  51  86  CALM    30.11R
#RONALD 2NW     N/A         57  51  80  W2      29.90R
#TROUT LAKE 1NE N/A         57  54  90  CALM    30.02R
$$

WAZ521-232310-
SIMCOE HIGHLANDS

CITY            SKY/WX      TMP DP  RH  WIND    PRES   REMARKS
#BICKLETON HS   N/A         56  50  80  W7      30.06S
#GOLDENDALE 1NE N/A         57  54  90  SW3     N/A
#GOLDENDALE 1S  N/A         57  55  93  W3      30.04R
#GOLDENDALE 5WNWN/A         57  53  86  W13     29.98S
#GOODNOE HILLS  N/A         61  58  90  NW17    29.97F
#LYLE 6NE       N/A         56  55  96  SW7     30.00R
$$

WAZ026-232310-
KITTITAS VALLEY

CITY            SKY/WX      TMP DP  RH  WIND    PRES   REMARKS
ELLENSBURG AP   LGT RAIN    62  55  78  NW14    29.98R
#ELLENSBURG CWU N/A         61  55  81  NW13    29.88R
#ELLENSBURG 3NE N/A         59  54  83  NW7     29.99R
#ELLENSBURG 1E  N/A         59  52  78  CALM    N/A
#KITTITAS 3S    N/A         60  56  87  CALM    29.91R
#THORP 6N       N/A         58  53  83  W13     29.93R
$$

WAZ027-232310-
YAKIMA VALLEY

CITY            SKY/WX      TMP DP  RH  WIND    PRES   REMARKS
YAKIMA AIRPORT  LGT RAIN    64  56  75  S12     29.97R
YAKIMA-VAGABOND LGT RAIN SH 63  54  72  SW10    29.99R
#COWICHE 1N     N/A         62  52  70  SW7     30.11R
#DONALD 2NE     N/A         67  43  42  SW1     30.30S
#GRANDVIEW      N/A         64  53  67  CALM    29.97R
#MABTON         N/A         66  56  70  SW5     29.98R
#MOXEE 2E       N/A         62  48  60  S5      29.92R
#NACHES 2SW     N/A         62  55  78  SW1     29.96S
#OUTLOOK DOT    N/A         N/A N/A N/A W12     N/A
#SELAH 8E       N/A         59  55  87  S12G28  N/A
#TERRACE HTS    N/A         64  55  73  S7      29.90R
#TOPPENISH      N/A         67  54  63  W1      29.86R
#WAPATO 4NE     N/A         67  43  42  SW1     30.30S
#WEST VALLEY    N/A         64  55  73  S1      29.94R
#W YAKIMA       N/A         63  57  81  S1      29.92R
#WHITE SWAN 5E  N/A         64  54  70  W14     29.95R
#WILEY CITY 3W  N/A         62  45  54  CALM    29.94R
$$

WAZ028-232310-
LOWER COLUMBIA BASIN...WASHINGTON

CITY            SKY/WX      TMP DP  RH  WIND    PRES   REMARKS
PASCO           THUNDER     71  55  57  W32G52  29.97R RAIN BLWG DUST
PROSSER AWOS    N/A         64  55  73  W5      30.01R
RICHLAND AWOS   MOCLDY      75  52  45  W24G40  29.95R HAZE
#BASIN CITY 5SW N/A         76  53  45  W22G41  29.90R
#BENTON CITY    N/A         67  54  63  W22G35  29.87R
#CONNELL 5N     N/A         75  63  66  W9      29.83R
#CONNELL 5NW    N/A         73  63  71  W7      29.79S
#ELTOPIA        N/A         65  59  81  SW12    29.89R
#ELTOPIA 6NW    N/A         73  60  64  SW12G25 28.87R
#KENNEWICK 3S   N/A         68  56  65  N12G31  29.96R
#PASCO-BROADMOORN/A         74  55  51  SW20G32 29.82R
#PATERSON       N/A         64  58  81  W8      29.97R
#PROSSER        N/A         65  50  58  SW9     29.98R
#SAGEMOOR 2W    N/A         73  61  66  SW22G41 29.74R
#TOUCHET 2S     N/A         68  59  73  W17G33  29.96R
#WEST PASCO     N/A         75  55  50  W14     29.90R
$$

WAZ029-232310-
FOOTHILLS OF THE BLUES...WASHINGTON

CITY            SKY/WX      TMP DP  RH  WIND    PRES   REMARKS
WALLA WALLA AP  THUNDER     68  57  68  W31G50  30.02R RAIN
#COLLEGE PLACE  N/A         77  56  48  SW14    29.98R
#DAYTON SCHOOL  N/A         75  55  50  S10     29.93R
#LOWDEN 2SE     N/A         72  57  59  W24G38  29.93R
#PLEASANT VIEW 1N/A         66  64  93  SE12    29.89R
#PRESCOTT       N/A         70  62  76  W5      29.88R
#SUDBURY        N/A         70  N/A N/A S8G25   N/A
#WHITMAN COLLEGEN/A         68  58  70  SW22G51 30.02R
#WAITSBURG 8N   N/A         69  50  51  SE13    29.79R
#WALLA WALLA 5E N/A         72  54  53  E6      N/A
#WALLA WALLA U  N/A         74  59  59  CALM    29.91R
#WHITMAN MISSIONN/A         71  61  71  SW9     29.93R
$$

WAZ030-232310-
BLUE MOUNTAINS...WASHINGTON

CITY            SKY/WX      TMP DP  RH  WIND    PRES   REMARKS
$$

ORZ009-041-WAZ024-232310-
COLUMBIA RIVER GORGE

CITY            SKY/WX      TMP DP  RH  WIND    PRES   REMARKS
HOOD RIVER AP   CLOUDY      63  54  72  NW10    30.07F
THE DALLES AP   CLOUDY      63  57  81  NW12    30.06S
#ARLINGTON AIRPON/A         60  57  90  SW15    N/A
#ARLINGTON HS   N/A         63  57  81  N2      29.92F
#CELILO DOT     N/A         64  55  73  NW2     N/A
#MOSIER 1S      N/A         60  49  67  SW12    30.12S
#MURDOCK        N/A         64  58  81  W20     30.07R
#RUFUS DOT      N/A         64  54  70  N18G32  N/A

$$

ORZ510-232310-
NORTH CENTRAL OREGON

CITY            SKY/WX      TMP DP  RH  WIND    PRES   REMARKS
#CHENOWITH 1W   N/A         55  54  96  NW24    N/A
#COW CYN RST AREN/A         59  52  78  SW7     N/A
#DUFUR 9E       N/A         54  53  96  NW8     30.05R
#GRASS VALLEY 1SN/A         62  54  75  W15     30.03F
#KENT DOT       N/A         59  50  72  W12     N/A
#MAUPIN SCHOOL  N/A         70  56  61  W6      30.07F
#MORO SCHOOL    N/A         58  58  100 NW10    30.07S
#SHANIKO 5WSW   N/A         59  44  57  SW12    N/A
#SHANIKO 4NW    N/A         57  51  80  SW13    30.10S
#TYGH VALLEY 2NEN/A         66  56  70  SW6     30.00F
#WAPANITIA AIRPON/A         64  52  65  W10     30.01F
#WASCO DOT      N/A         60  57  90  SW6     N/A
#WASCO AIRPORT  N/A         57  54  90  W5      N/A
#WASCO 5NE      N/A         59  56  90  SW7     30.01S
$$

ORZ511-232310-
CENTRAL OREGON

CITY            SKY/WX      TMP DP  RH  WIND    PRES   REMARKS
BEND AIRPORT    PTCLDY      66  48  52  SW10    30.10F
MADRAS AIRPORT  PTCLDY      68  50  53  W12     30.10F
REDMOND AIRPORT PTCLDY      64  52  65  VRB5    30.08F
#BEND 6E        N/A         66  45  47  CALM    29.92F
#BEND 1SW       N/A         65  47  52  SW1     N/A
#BEND-AWBREY    N/A         69  49  49  NE16    29.96F
#BEND-KIM LN    N/A         68  54  61  SW8     30.07F
#CROOKED RVR RANN/A         64  51  63  NW12    30.00S
#CULVER         N/A         64  50  60  SW7     30.06F
#LAKE BILLY CHINN/A         63  32  31  W5      30.12F
#POWELL BUTTE 3EN/A         58  54  87  NE3     N/A
#POWELL BUTTE   N/A         69  53  57  W6      29.73F
#PRINEVILLE 3N  N/A         61  54  78  CALM    29.94F


ORZ509-232310-
EAST SLOPES OF OREGON CASCADES

CITY            SKY/WX      TMP DP  RH  WIND    PRES   REMARKS
#BLUE BOX PASS  N/A         48  -3  11  NW6     N/A
#BLACK BUTTE RNCN/A         55  50  83  CALM    30.01R
#CAMP SHERMAN   N/A         57  48  72  CALM    30.08R
#LA PINE DOT    N/A         64  40  41  SW13    N/A
#LA PINE 4NW    N/A         61  49  65  NW7     30.03F
#LAVA BUTTE DOT N/A         61  43  51  S6      N/A
#SISTERS AIRPOR N/A         57  53  86  N6      30.09S
#SISTERS ODOT   N/A         58  N/A N/A S7      N/A
#SISTERS 1NW    N/A         58  47  67  N8      N/A
#SISTERS 3N     N/A         58  32  37  W3      30.13S
#SUNRIVER       N/A         64  50  60  S3      29.87F
#SUNRIVER AP    N/A         60  49  67  NW7     29.96F
#TUMALO 3W      N/A         62  49  62  N6      29.88S
#WANOGA BUTTE D N/A         50  44  80  W12G26  N/A

$$

ORZ044-232310-
LOWER COLUMBIA BASIN...OREGON

CITY            SKY/WX      TMP DP  RH  WIND    PRES   REMARKS
HERMISTON       N/A         66  59  78  W16G24  30.02R
#BOARDMAN SCHOOLN/A         65  58  78  W6      30.00R
#BOARDMAN 3W    N/A         68  64  87  SW12    29.74R
#BOARDMAN 8SW   N/A         63  59  87  SW12    30.00R
#IONE SCHOOL    N/A         62  50  65  SW10    30.04S
#IRRIGON 4NW    N/A         71  55  57  SW23G33 N/A
#UMATILLA SCHOOLN/A         64  64  100 W12     30.08R
#UMATILLA       N/A         66  56  70  SW17G33 29.99R
$$

ORZ507-232310-
NORTHERN FOOTHILLS OF THE BLUES

CITY            SKY/WX      TMP DP  RH  WIND    PRES   REMARKS
PENDLETON AIRPT LGT RAIN    62  56  81  W22G35  30.03R
#ADAMS 3WNW     N/A         60  57  90  W20G35  29.96R
#ATHENA         N/A         64  55  73  SW26G40 29.98R
#HELIX SCHOOL   N/A         69  57  66  W16G33  29.90R
#HELIX 3N       N/A         61  56  84  W26G50  30.00R
#HOLDMAN 5SE    N/A         69  55  61  W28G45  30.05R
#M-F FERNDALE   N/A         74  54  50  CALM    29.96R
#M-F GROVE ELEM N/A         76  52  43  W13G24  29.93R
#M-FREEWATER 5SEN/A         71  53  53  W24G37  30.02R
#PDT AQUATIC CTRN/A         67  54  63  W22G32  30.01R
#PENDLETON DNTN N/A         68  52  57  N5      29.98R
#PENDLETON 5NE  N/A         62  58  87  W1      30.01R
#PDT SUNRIDGE   N/A         63  58  84  W13G31  30.05R
#PENDLETON 7NW  N/A         64  57  78  W22G39  29.94R
#TUTUILLA       N/A         63  58  84  W15     29.94R
#WESTON SCHOOL  N/A         66  53  63  NW17G39 30.02R

$$

ORZ508-232310-
SOUTHERN FOOTHILLS OF THE BLUES

CITY            SKY/WX      TMP DP  RH  WIND    PRES   REMARKS
#AJAX           N/A         N/A N/A N/A SW9     30.09F
#CONDON SCHOOL  N/A         55  53  93  SW9     30.03F
#CONDON 5W      N/A         53  50  89  SW13    30.06F
#HEPPNER EOC    N/A         59  54  83  NW2     29.94F
#HEPPNER 4NE    N/A         55  52  90  SW7     29.97R
#LEXINGTON 2SE  N/A         63  56  78  NW3     30.04F
#MIKKALO        N/A         59  53  80  W8      30.05F
#RUGGS 5NE      N/A         58  55  90  SW7     30.27S
#RUGGS 2SW      N/A         60  51  72  W16     30.01S

$$

ORZ502-503-232310-
BLUE MOUNTAINS

CITY            SKY/WX      TMP DP  RH  WIND    PRES   REMARKS
MEACHAM         CLOUDY      58  50  75  VRB6    30.13R
#BATTLE MTN DOT N/A         51  51  100 NW2     N/A
#HARDMAN 10S    N/A         58  47  67  SW8     30.14F
#HEPPNER 15SE   N/A         53  49  86  W5      30.02F
#LADD CYN SMT   N/A         77  46  33  W7      N/A
#LADD CREEK ODOTN/A         78  55  45  SW2     N/A
#LONG CREEK HS  N/A         61  50  67  N12     30.05R
#PIKES PEAK     N/A         62  53  72  SW35G46 27.99S
#TOLLGATE 9W    N/A         67  59  75  W5      N/A
#TROY SCHOOL    N/A         89  58  35  W1      29.59S
#UKIAH          N/A         57  54  90  N10     29.96R
#WESTON 4E      N/A         60  51  72  W16G35  29.91R
$$

ORZ505-232310-
JOHN DAY BASIN

CITY            SKY/WX      TMP DP  RH  WIND    PRES   REMARKS
JOHN DAY        MOCLDY      78  47  34  W21G32  30.03R
#JOHN DAY KJDY  N/A         85  48  28  W14G25  29.90S
#MONUMENT HS    N/A         66  47  50  SW6     29.86R
#MT. VERNON 5SE N/A         75  48  38  S7      30.01R
#WINLOCK        N/A         60  50  69  NE10    30.16F
$$

ORZ506-232310-
OCHOCO AND JOHN DAY HIGHLANDS

CITY            SKY/WX      TMP DP  RH  WIND    PRES   REMARKS
#BUCK CREEK DOT N/A         70  53  55  W12     N/A
#HORSE RIDGE DO N/A         64  44  48  W15     N/A
#KEYES SMT DOT  N/A         60  44  55  SW20    N/A
#PAULINA SCHOOL N/A         68  44  42  N7      30.09F
#PINE MTN OBS   N/A         55  44  66  SE6     N/A
#PRAIRIE CITY   N/A         80  45  29  W7      29.80R
#SENECA 9NW     N/A         73  48  41  S1      29.86R
$$

ORZ049-232310-
GRANDE RONDE VALLEY

CITY            SKY/WX      TMP DP  RH  WIND    PRES   REMARKS
LA GRANDE       PTCLDY      75  50  41  NW24G35 29.96R
#COVE           N/A         78  63  60  W5      29.87R
#COVE SCHOOL    N/A         80  60  51  NW1     29.93R
#COVE 6NW       N/A         78  58  50  W10     29.85R
#ELGIN 3N       N/A         70  55  59  NW8     29.69R
#ELGIN 1E       N/A         74  60  62  W7      N/A
#IMBLER SCHOOL  N/A         72  58  61  CALM    29.92R
#ISLAND CITY 4N N/A         77  61  58  W8      29.73S
#LADD CYN DOT   N/A         78  54  43  W14     N/A
#UNION 1S       N/A         86  41  21  SW7     29.69R
$$

ORZ050-232310-
WALLOWA COUNTY

CITY            SKY/WX      TMP DP  RH  WIND    PRES   REMARKS
JOSEPH AIRPORT  PTCLDY      81  39  22  E14G36  30.00S
#ENTERPRISE HS  N/A         84  45  26  S2      29.96F
#IMNAHA 10S     N/A         89  44  21  SW12G24 29.91S
#JOSEPH 3N      N/A         81  47  30  SE13    30.01R
#LOSTINE        N/A         86  44  23  SW5     29.57F
#MT HOWARD 8000 N/A         59  38  45  S12     30.26S
#PROMISE 1S     N/A         76  56  50  E14     29.91R
#SHEEP RDG 7000 N/A         66  37  34  CALM    29.83F
#WALLOWA SCHOOL N/A         89  38  17  W1      30.64S



$$



USA.gov is the U.S. government's official web portal to all federal, state and local government web resources and services.